Regional Weather Roundup
Issued by NWS Kansas City/Pleasant Hill, MO

Home | Current Version | Previous Version | Graphics & Text | Print | Product List | Glossary Off
Versions: 1 2 3 4 5 6 7 8 9 10 11 12 13 14 15 16 17 18 19 20 21 22 23 24 25 26 27 28 29 30 31 32 33 34 35 36 37 38 39 40 41 42 43 44 45 46 47 48 49 50

000
ASUS43 KEAX 271410
RWREAX

WEATHER ROUNDUP FOR EASTERN KANSAS AND NORTHWEST MISSOURI
NATIONAL WEATHER SERVICE KANSAS CITY/PLEASANT HILL MO
900 AM CDT WED AUG 27 2014

KSZ040-057-103>105-MOZ028-029-037-043-271500-
...KANSAS CITY METROPOLITAN AREA...

CITY           SKY/WX    TMP DP  RH WIND       PRES   REMARKS
K.C. INTL      PTSUNNY   71  68  90 NE13      30.13F
K.C. DOWNTOWN  MOSUNNY   78  69  73 N12       30.11S
LEES SUMMIT    SUNNY     77  71  82 N9        30.13R
OLATHE - IXD   PTSUNNY   78  68  71 N9        30.13R
OLATHE - OJC   PTSUNNY   78  70  76 NE8       30.11R
LAWRENCE       PTSUNNY   81  72  74 E10       30.12R

$$

MOZ001>008-011>017-020>025-030>033-038>040-044>046-053-054-271500-
...NORTHERN AND CENTRAL MISSOURI...

CITY           SKY/WX    TMP DP  RH WIND       PRES   REMARKS
ST. JOSEPH     CLOUDY    71  66  84 E8        30.10F
MOSBY          PTSUNNY   73  70  88 N8        30.13R
WHITEMAN AFB   MOSUNNY   77  49  37 SW3       30.10R
CLINTON        SUNNY     79  72  78 SW6       30.10S
SEDALIA        MOSUNNY   79  69  71 SW7       30.10S
WARSAW         NOT AVBL
MARSHALL       CLOUDY    77  75  94 N13G18    30.15R
CHILLICOTHE      N/A     71  69  93 N5        30.17R
MOBERLY        CLOUDY    75  70  83 N5        30.13R
KIRKSVILLE     CLOUDY    70  67  90 NW16G24   30.17R

$$

MOZ041-047>049-056>058-063>065-088>090-097-271500-
...EASTERN AND SOUTHERN MISSOURI...

CITY           SKY/WX    TMP DP  RH WIND       PRES   REMARKS
ST. LOUIS INTL MOSUNNY   80  72  76 SE6       30.11S
SPIRIT OF STL  SUNNY     80  72  76 E6        30.09R
COLUMBIA       MOSUNNY   79  72  79 CALM      30.10S
JEFFERSON CITY SUNNY     78  71  79 CALM      30.08F
MEXICO         MOSUNNY   79  79 100 NE3       30.11R
ROLLA          SUNNY     80  69  69 SW9       30.11R
LEBANON        SUNNY     82  70  65 SW5       30.14R
OSAGE BEACH    SUNNY     77  70  78 S3        30.11R
SPRINGFIELD    SUNNY     80  69  69 S6        30.13R
BRANSON        SUNNY     84  72  65 CALM      30.15R
NEVADA         SUNNY     81  70  69 SW5       30.13R
JOPLIN         SUNNY     82  70  66 W8        30.12R
WEST PLAINS    SUNNY     82  71  69 W3        30.15R

$$

IAZ060-094-KSZ022-034>040-054-083-096-NEZ052-066-093-271500-
...KANSAS...SOUTHEAST NEBRASKA AND IOWA...

CITY           SKY/WX    TMP DP  RH WIND       PRES   REMARKS
TOPEKA         CLOUDY    77  72  84 NE6       30.12R
MANHATTAN      MOSUNNY   78  71  79 CALM      30.09R
EMPORIA        MOSUNNY   80  69  69 SW6       30.11R
CHANUTE        SUNNY     81  68  64 SW8       30.12R
WICHITA        PTSUNNY   80  65  59 NW9       30.12S
OMAHA          CLOUDY    69  65  86 E7        30.10F THUNDER
LINCOLN        CLOUDY    71  68  90 NE5       30.11R
FALLS CITY     LGT RAIN  70  68  93 S8        30.11R
LAMONI         LGT RAIN  68  67  96 E5        30.15F
DES MOINES     CLOUDY    69  63  81 E6        30.15R

$$



USA.gov is the U.S. government's official web portal to all federal, state and local government web resources and services.